Location: Leeds
(37.2390°N, 113.3580°W)
Time: 23:22:49
(UTC-06:00)

ISS - All Passes

Search period start: 23 April 2017 00:00
Search period end: 03 May 2017 00:00
Orbit: 400 x 409 km, 51.6° (Epoch: 24 April)

Date Brightness Start Highest point End Pass type
(mag) Time Alt. Az. Time Alt. Az. Time Alt. Az.
23 Apr - 09:17:32 10° SSE 09:19:14 13° SE 09:20:55 10° E daylight
23 Apr - 10:52:12 10° WSW 10:55:22 50° NW 10:58:33 10° NE daylight
23 Apr - 12:31:31 10° NW 12:32:29 11° NNW 12:33:25 10° N daylight
23 Apr - 15:46:21 10° N 15:48:00 13° NNE 15:49:39 10° NE daylight
23 Apr - 17:21:42 10° NW 17:24:58 76° NE 17:28:12 10° SE daylight
24 Apr - 09:59:53 10° SW 10:03:07 77° SE 10:06:22 10° NE daylight
24 Apr - 11:37:54 10° WNW 11:39:56 15° NNW 11:41:58 10° NNE daylight
24 Apr - 16:29:35 10° NW 16:32:39 38° NE 16:35:43 10° ESE daylight
24 Apr - 18:06:35 10° W 18:08:55 18° SW 18:11:14 10° S daylight
25 Apr - 09:07:56 10° SSW 09:10:56 35° SE 09:13:56 10° ENE daylight
25 Apr - 10:44:46 10° W 10:47:28 23° NNW 10:50:09 10° NNE daylight
25 Apr - 15:37:36 10° NNW 15:40:15 22° NNE 15:42:53 10° E daylight
25 Apr - 17:13:46 10° WNW 17:16:48 37° SW 17:19:50 10° SSE daylight
26 Apr - 08:16:35 10° S 08:18:49 17° SE 08:21:03 10° E daylight
26 Apr - 09:51:58 10° WSW 09:55:04 40° NW 09:58:09 10° NE daylight
26 Apr - 14:45:47 10° NNW 14:47:46 15° NNE 14:49:43 10° ENE daylight
26 Apr - 16:21:20 10° NW 16:24:36 83° SW 16:27:50 10° SE daylight
27 Apr - 08:59:29 10° SW 09:02:44 81° NW 09:05:59 10° NE daylight
27 Apr - 10:37:55 10° NW 10:39:39 14° NNW 10:41:23 10° N daylight
27 Apr - 13:54:22 10° N 13:55:10 11° NNE 13:55:58 10° NNE daylight
27 Apr - 15:29:08 10° NW 15:32:18 47° NE 15:35:27 10° ESE daylight
27 Apr - 17:06:37 10° W 17:08:28 14° SW 17:10:18 10° SSW daylight
28 Apr - 08:07:22 10° SSW 08:10:29 46° SE 08:13:37 10° ENE daylight
28 Apr - 09:44:37 10° WNW 09:47:06 20° NNW 09:49:37 10° NNE daylight
28 Apr - 14:37:04 10° NNW 14:39:53 26° NNE 14:42:42 10° E daylight
28 Apr - 16:13:28 10° WNW 16:16:20 29° SW 16:19:11 10° SSE daylight
29 Apr - 07:15:43 10° S 07:18:18 22° SE 07:20:54 10° ENE daylight
29 Apr - 08:51:40 10° W 08:54:39 32° NNW 08:57:37 10° NNE daylight
29 Apr - 13:45:09 10° NNW 13:47:23 17° NNE 13:49:37 10° ENE daylight
29 Apr - 15:20:54 10° NW 15:24:07 63° SW 15:27:19 10° SE daylight
30 Apr - 06:25:16 10° SE 06:26:11 11° SE 06:27:06 10° ESE daylight
30 Apr - 07:59:01 10° WSW 08:02:14 63° NW 08:05:29 10° NE daylight
30 Apr - 09:37:53 10° NW 09:39:15 12° NNW 09:40:38 10° N daylight
30 Apr - 12:53:28 10° N 12:54:47 12° NNE 12:56:06 10° NE daylight
30 Apr - 14:28:35 10° NW 14:31:48 61° NE 14:35:01 10° ESE daylight
30 Apr - 16:06:52 10° WSW 16:07:52 11° SW 16:08:54 10° SW daylight
01 May - 07:06:43 10° SW 07:09:56 61° SE 07:13:09 10° NE daylight
01 May - 08:44:23 10° WNW 08:46:39 17° NNW 08:48:55 10° NNE daylight
01 May - 13:36:26 10° NNW 13:39:24 31° NNE 13:42:20 10° E daylight
01 May - 15:13:07 10° WNW 15:15:44 22° SW 15:18:21 10° S daylight
02 May - 06:14:50 10° SSW 06:17:41 28° SE 06:20:32 10° ENE daylight
02 May - 07:51:16 10° W 07:54:07 27° NNW 07:56:57 10° NNE daylight
02 May - 12:44:25 10° NNW 12:46:53 20° NNE 12:49:20 10° ENE daylight
02 May - 14:20:22 10° WNW 14:23:31 47° SW 14:26:38 10° SSE daylight
